NOAA 17 DEB

基本信息
目录编号:
48186
目录名称:
NOAA 17 DEB
国际标识:
2002-032AB
轨道中心:
EARTH
物体状态:
已陨落(2024-11-16)
发射日期:
2002-06-24 UTC
轨道信息
数据来源: 国际轨道数据
星历时间: 2024-10-12T02:01:20+0800
半长轴: 7082.665km
偏心率: 0.0028135
轨道倾角: 98.722°
近地点辐角: 70.412°
升交点赤经: 266.585°
平近点角: 290.011°
近地点: 684.602km
远地点: 724.458km
周期: 98.868分钟
每日圈数: 14.564908
详细信息
发射场:
AFWTR
轨道高度:
LEO
数据来源:
AOE Integration Group
参考系:
TEME
时间系统:
UTC
历元类型:
SGP4
2D轨道图
3D轨道图
轨道高度分析图
轨道倾角分析图
轨道综合分析图
查看轨道综合分析图